TimePDT,TemperatureF,Dew PointF,Humidity,Sea Level PressureIn,VisibilityMPH,Wind Direction,Wind SpeedMPH,Gust SpeedMPH,PrecipitationIn,Events,Conditions,WindDirDegrees,DateUTC
12:56 AM,37.0,32.0,82,30.23,10.0,Calm,Calm,-,N/A,,Mostly Cloudy,0,2012-10-17 07:56:00
1:34 AM,37.4,32.0,81,30.21,10.0,Calm,Calm,-,N/A,,Mostly Cloudy,0,2012-10-17 08:34:00
1:49 AM,37.4,32.0,81,30.22,10.0,Calm,Calm,-,N/A,,Mostly Cloudy,0,2012-10-17 08:49:00
1:56 AM,37.0,32.0,82,30.25,10.0,Calm,Calm,-,N/A,,Mostly Cloudy,0,2012-10-17 08:56:00
2:56 AM,39.0,33.1,79,30.25,10.0,Calm,Calm,-,N/A,,Overcast,0,2012-10-17 09:56:00
3:56 AM,39.0,33.1,79,30.24,10.0,Calm,Calm,-,N/A,,Overcast,0,2012-10-17 10:56:00
4:56 AM,37.9,33.1,83,30.25,10.0,Variable,4.6,-,N/A,,Overcast,0,2012-10-17 11:56:00
5:37 AM,37.4,33.8,87,30.22,10.0,Calm,Calm,-,N/A,,Overcast,0,2012-10-17 12:37:00
5:56 AM,37.9,33.1,83,30.25,10.0,Variable,3.5,-,N/A,,Overcast,0,2012-10-17 12:56:00
6:12 AM,37.4,33.8,87,30.22,10.0,Variable,3.5,-,N/A,,Overcast,0,2012-10-17 13:12:00
6:56 AM,37.9,33.1,83,30.26,10.0,Calm,Calm,-,N/A,,Overcast,0,2012-10-17 13:56:00
7:56 AM,37.0,32.0,82,30.28,10.0,Calm,Calm,-,N/A,,Mostly Cloudy,0,2012-10-17 14:56:00
8:25 AM,37.4,33.8,87,30.24,10.0,Calm,Calm,-,N/A,,Scattered Clouds,0,2012-10-17 15:25:00
8:44 AM,39.2,32.0,75,30.25,10.0,Calm,Calm,-,N/A,,Mostly Cloudy,0,2012-10-17 15:44:00
8:56 AM,39.0,32.0,76,30.30,10.0,Calm,Calm,-,N/A,,Mostly Cloudy,0,2012-10-17 15:56:00
9:56 AM,42.1,32.0,67,30.29,10.0,Calm,Calm,-,N/A,,Mostly Cloudy,0,2012-10-17 16:56:00
10:03 AM,42.8,32.0,66,30.24,10.0,Calm,Calm,-,N/A,,Scattered Clouds,0,2012-10-17 17:03:00
10:56 AM,45.0,30.9,58,30.29,10.0,Calm,Calm,-,N/A,,Partly Cloudy,0,2012-10-17 17:56:00
11:56 AM,46.9,30.9,54,30.28,10.0,Calm,Calm,-,N/A,,Clear,0,2012-10-17 18:56:00
12:56 PM,48.9,27.0,43,30.28,10.0,Calm,Calm,-,N/A,,Clear,0,2012-10-17 19:56:00
1:56 PM,50.0,28.0,43,30.25,10.0,Variable,3.5,-,N/A,,Clear,0,2012-10-17 20:56:00
2:56 PM,51.1,28.9,43,30.25,10.0,Calm,Calm,-,N/A,,Clear,0,2012-10-17 21:56:00
3:56 PM,51.1,30.0,44,30.25,10.0,Calm,Calm,-,N/A,,Clear,0,2012-10-17 22:56:00
4:56 PM,48.9,30.0,48,30.25,10.0,Calm,Calm,-,N/A,,Clear,0,2012-10-17 23:56:00
5:56 PM,44.1,33.1,65,30.27,10.0,Calm,Calm,-,N/A,,Clear,0,2012-10-18 00:56:00
6:56 PM,39.0,32.0,76,30.29,10.0,Calm,Calm,-,N/A,,Clear,0,2012-10-18 01:56:00
7:56 PM,35.1,30.9,85,30.31,10.0,Calm,Calm,-,N/A,,Clear,0,2012-10-18 02:56:00
8:56 PM,32.0,30.0,92,30.30,10.0,Calm,Calm,-,N/A,,Clear,0,2012-10-18 03:56:00
9:56 PM,30.0,28.0,92,30.31,10.0,Calm,Calm,-,N/A,,Clear,0,2012-10-18 04:56:00
10:56 PM,28.9,27.0,92,30.31,10.0,Calm,Calm,-,N/A,,Clear,0,2012-10-18 05:56:00
11:56 PM,28.0,27.0,96,30.30,10.0,Calm,Calm,-,N/A,,Clear,0,2012-10-18 06:56:00